Wetbulb
50.10 43.75 38.95 42.18 45.36 44.39 44.54 42.04 40.97 42.77 47.66 45.41 46.44 46.78 48.99 51.85 51.96 51.20 52.77 53.35 53.40 53.90 56.98 59.16 60.86 62.54 63.21 64.10 64.58 65.04 65.09 65.13 64.95 64.21 63.30 62.35 61.72 63.27 63.58 64.04 64.02 63.64 63.28 63.11
45.52 40.41 44.64 45.54 46.43 45.46 43.42 41.32 39.44 43.34 45.47 44.00 45.98 45.63 49.03 50.59 50.56 51.82 52.72 53.66 53.93 54.22 55.13 55.70 57.91 60.28 61.64 62.71 63.54 64.16 64.71 65.28 64.91 64.54 64.04 63.74 63.51 64.15 64.35 64.19 63.80 63.68 63.28 63.12
42.19 43.89 47.48 45.80 44.44 43.83 42.68 40.06 39.70 39.75 43.00 45.22 44.00 43.60 46.35 49.95 50.47 51.61 52.85 53.98 55.21 55.94 56.06 57.15 56.85 57.83 60.39 61.25 62.60 63.40 63.99 64.79 65.16 64.73 64.53 63.83 64.10 63.62 62.69 63.26 62.75 62.85 62.83 62.81
43.84 45.35 44.86 44.00 43.28 44.58 39.91 44.84 43.85 42.04 38.69 35.53 43.55 35.14 44.28 47.06 47.00 47.88 49.61 51.69 52.71 54.07 56.10 57.04 57.81 57.51 58.88 60.93 62.70 63.44 64.11 64.31 64.98 65.12 63.95 62.84 61.83 60.56 62.69 63.42 63.34 63.26 62.68 62.29
41.62 43.47 43.56 42.59 43.69 45.61 42.62 45.86 44.16 42.71 40.05 39.22 39.89 36.07 41.16 45.94 44.40 47.31 50.29 51.61 51.99 52.85 53.30 53.65 55.18 57.15 58.10 60.68 61.85 62.89 63.39 63.78 64.46 64.99 64.62 63.59 62.50 63.79 64.08 64.02 63.66 63.21 63.27 62.55
43.68 46.90 46.28 45.15 46.51 46.77 46.36 44.08 43.19 42.83 40.64 33.56 38.66 37.92 39.05 42.98 45.17 47.81 50.29 51.59 52.40 52.75 53.47 54.27 55.31 55.95 56.12 58.23 60.51 61.85 62.15 62.58 63.55 63.99 64.28 63.92 62.81 62.91 63.27 63.46 62.71 62.54 62.99 62.63
40.77 41.38 44.59 46.55 42.96 45.41 44.38 41.00 33.36 32.03 31.66 30.46 37.18 37.39 40.53 46.14 47.23 47.47 48.88 50.98 52.36 52.96 53.06 53.71 54.18 54.50 54.59 55.39 57.50 59.72 60.86 60.95 62.42 62.93 63.49 63.93 64.17 63.36 62.82 63.19 63.02 62.29 62.10 61.74
34.20 33.08 41.83 45.51 43.68 41.04 41.41 40.40 33.58 26.15 28.34 32.80 35.25 33.62 40.34 47.29 49.63 50.58 50.30 50.31 50.46 51.03 51.82 51.91 53.15 54.17 54.94 55.00 55.94 58.09 58.83 59.59 61.09 61.71 62.39 63.57 63.92 64.11 63.98 63.85 63.75 62.87 62.86 62.43
34.79 33.90 43.45 44.38 44.55 45.12 40.15 36.52 42.29 33.08 26.79 31.04 36.07 39.63 43.23 45.45 45.67 46.24 46.85 48.32 49.57 51.04 51.71 51.12 52.23 53.09 54.07 54.49 54.69 56.10 57.84 58.83 60.06 60.83 61.90 62.45 63.26 63.34 63.38 63.54 63.90 63.47 63.21 62.49
37.71 32.58 39.78 43.21 45.29 44.99 42.93 43.45 34.43 33.78 29.05 27.05 34.19 35.14 37.77 41.20 43.02 46.01 46.47 47.17 48.69 50.19 49.80 50.56 51.05 51.62 52.72 53.55 54.31 55.19 57.05 57.91 59.44 60.48 61.04 61.41 62.08 62.65 63.06 63.26 62.84 62.65 62.88 62.46
40.99 37.67 35.97 41.39 39.77 38.57 38.94 37.90 37.63 38.23 35.14 30.47 28.91 35.42 44.58 44.84 46.34 45.69 45.99 46.33 46.89 46.72 47.66 48.47 49.35 50.44 50.33 50.83 50.26 52.02 54.83 57.01 58.37 59.57 60.39 60.90 61.41 61.61 62.10 62.30 62.40 62.30 62.23 61.83
41.83 37.34 32.65 35.95 41.74 42.98 43.09 39.55 39.29 33.12 31.47 33.69 32.70 33.75 44.93 45.67 45.24 43.45 45.70 46.80 45.75 44.79 45.47 47.39 48.34 48.18 48.84 48.53 48.23 48.58 52.91 55.71 57.86 59.32 59.79 60.29 60.63 60.89 60.75 60.93 61.44 61.71 61.06 61.53
41.26 35.62 30.15 31.21 36.41 40.20 39.06 41.08 41.23 40.35 37.53 33.26 30.97 34.81 45.21 45.79 45.47 46.23 44.14 46.16 46.76 46.04 46.11 46.85 47.66 47.29 47.05 47.12 47.23 48.85 49.98 53.40 56.77 57.95 58.46 59.11 59.58 59.62 59.69 60.19 60.58 60.54 59.99 59.88
42.87 36.39 32.76 28.73 32.12 36.89 34.50 37.44 40.50 39.43 33.50 34.01 34.86 37.34 42.51 44.43 45.50 47.23 47.43 48.96 49.82 49.84 49.42 48.35 46.89 47.88 46.93 46.37 46.70 46.78 49.39 51.60 53.52 55.82 56.58 56.80 57.32 57.90 58.75 59.08 58.84 58.61 58.39 58.11
40.35 32.81 34.75 35.97 35.88 36.44 36.37 36.05 37.03 36.46 38.34 33.40 36.86 38.01 41.65 44.62 45.84 46.86 46.82 47.27 47.64 48.34 49.14 49.72 47.92 48.13 48.26 46.63 45.93 45.65 45.67 47.38 50.27 52.09 54.17 53.02 53.95 54.82 54.83 54.45 53.91 52.65 53.02 53.02
38.98 33.37 34.59 30.79 35.29 35.16 32.77 35.17 35.93 35.86 36.85 37.63 38.50 38.48 45.25 46.71 47.14 46.15 46.55 47.33 47.45 47.87 48.62 48.79 46.50 45.88 45.94 46.86 45.79 45.38 44.67 44.86 45.17 46.98 49.75 50.78 47.86 44.90 45.86 44.72 43.27 43.12 42.45 44.26
36.31 33.22 30.93 27.53 32.69 32.50 28.66 33.14 34.72 35.96 37.59 37.71 34.55 40.18 44.43 43.66 43.83 43.78 44.38 45.39 45.87 46.84 48.42 49.38 49.99 50.00 47.65 47.16 46.22 45.21 44.95 44.86 43.97 44.70 43.37 43.02 41.41 42.00 43.58 42.82 43.04 42.85 42.90 42.38
33.12 32.42 32.19 28.12 28.82 21.67 32.93 38.42 38.63 36.53 37.95 39.53 39.32 40.27 41.82 42.69 43.96 44.98 46.17 45.67 45.78 46.65 47.49 48.73 49.70 50.40 50.14 47.78 46.13 46.21 44.74 43.68 43.69 43.36 42.16 41.18 41.40 39.63 39.04 39.86 40.80 40.49 40.95 41.33
36.31 32.79 28.63 24.90 24.85 28.30 31.56 33.55 34.13 33.75 34.42 40.17 39.63 41.21 42.54 44.05 44.75 44.09 46.58 47.44 47.21 47.90 48.71 49.54 50.96 51.36 51.53 48.81 45.90 43.80 42.08 41.71 41.34 40.87 40.84 40.40 40.80 38.46 38.02 37.41 38.55 38.24 37.35 36.54
35.49 35.44 29.15 25.18 22.20 19.64 31.95 36.80 40.03 39.76 29.03 40.46 41.87 41.44 41.75 42.54 36.37 40.55 46.15 47.54 47.83 48.75 49.21 49.25 50.25 50.85 49.46 49.17 45.48 42.04 41.19 40.18 40.05 40.13 40.00 40.15 39.43 37.39 37.08 37.72 36.76 36.32 37.10 34.76
27.42 28.47 26.48 26.89 23.89 26.65 33.04 35.95 38.71 26.89 29.99 41.03 41.14 41.39 41.03 39.13 41.81 44.21 45.69 45.84 47.04 47.43 47.70 48.86 49.27 48.40 48.86 47.62 42.31 40.85 41.28 39.69 41.55 39.99 38.64 37.75 37.48 36.36 37.56 36.34 35.36 35.01 34.67 33.82
26.36 25.06 25.21 26.14 22.88 19.98 36.78 35.49 31.02 37.11 40.29 39.61 37.18 37.53 35.25 37.01 38.26 40.18 41.64 42.55 44.32 45.68 46.69 47.56 46.53 47.25 47.96 44.94 40.83 40.57 40.08 41.82 39.48 38.06 36.60 35.69 34.69 35.28 34.94 33.82 33.80 33.76 33.49 32.46
25.58 30.89 28.60 29.63 29.29 36.93 38.84 38.31 34.08 33.64 33.35 32.53 30.76 31.95 31.69 31.77 33.57 35.01 35.95 37.67 39.73 41.27 43.12 43.94 44.31 43.63 45.02 39.96 40.27 39.51 40.79 38.26 35.53 34.90 34.06 33.44 33.56 33.47 33.73 33.69 33.53 33.79 33.37 32.99
29.46 32.49 30.07 30.77 33.81 35.32 37.62 32.75 27.13 25.43 24.76 26.59 26.92 26.08 27.95 28.74 30.53 31.33 33.18 33.84 35.43 37.15 38.08 39.03 38.61 37.82 38.22 37.26 36.64 39.45 38.10 35.43 34.13 34.00 32.98 32.55 32.63 32.12 32.77 34.74 34.93 34.47 33.46 32.48
31.27 31.99 30.26 29.99 32.94 33.68 35.30 23.68 21.02 21.45 23.80 23.71 23.42 24.04 24.23 25.08 26.12 27.93 29.45 30.99 32.82 34.29 35.64 37.06 36.26 36.57 37.25 36.80 36.00 36.10 34.16 33.68 33.91 33.38 32.32 31.94 32.56 32.02 31.21 32.16 33.04 33.27 33.28 33.44
20.99 19.53 26.07 27.60 14.41 14.78 22.29 19.10 18.85 18.94 17.50 18.25 19.10 19.65 20.88 21.91 23.36 25.38 27.59 30.11 30.61 31.27 33.31 33.98 35.05 34.46 35.49 33.53 34.16 32.33 32.66 33.72 33.28 31.83 30.91 31.46 31.11 30.81 30.66 29.90 28.66 29.69 29.83 30.68
MSLP
1019.73 1020.37 1020.78 1020.51 1020.37 1020.38 1019.48 1019.35 1019.10 1018.93 1018.74 1018.33 1017.25 1016.21 1015.11 1014.88 1014.79 1014.54 1014.14 1013.90 1013.97 1013.96 1013.89 1014.51 1015.10 1015.57 1016.07 1016.34 1016.57 1016.91 1017.19 1017.70 1018.38 1018.73 1019.13 1019.45 1019.61 1019.99 1020.27 1020.44 1020.81 1021.04 1021.29 1021.72
1019.85 1018.64 1018.68 1020.16 1020.54 1020.50 1020.01 1019.86 1019.94 1019.65 1019.88 1019.12 1017.75 1016.07 1014.81 1014.60 1014.25 1013.87 1013.42 1013.12 1013.15 1013.22 1013.19 1013.57 1014.11 1014.52 1014.81 1015.02 1015.49 1015.77 1015.95 1016.59 1017.23 1017.64 1018.08 1018.47 1018.77 1018.95 1019.23 1019.72 1020.16 1020.50 1020.65 1020.96
1018.19 1017.74 1018.53 1019.48 1019.88 1020.10 1020.18 1020.08 1020.26 1020.63 1020.69 1019.93 1018.68 1015.92 1014.07 1013.24 1013.27 1012.93 1012.53 1012.32 1012.02 1011.86 1011.97 1012.11 1012.67 1013.16 1013.58 1013.87 1013.93 1014.45 1015.06 1015.49 1015.90 1016.51 1017.25 1017.72 1017.97 1018.31 1018.63 1018.74 1019.18 1019.37 1019.75 1020.07
1018.35 1018.01 1018.03 1018.52 1018.37 1019.16 1019.31 1019.66 1020.13 1020.48 1021.08 1020.66 1019.29 1015.65 1013.62 1012.82 1012.46 1012.12 1011.62 1011.37 1010.90 1010.74 1010.90 1011.02 1011.19 1011.64 1012.17 1012.31 1013.10 1013.65 1013.90 1014.53 1014.82 1015.61 1016.12 1016.29 1016.45 1016.84 1017.05 1017.60 1018.06 1018.28 1018.76 1019.05
1017.56 1017.74 1017.58 1017.65 1017.72 1018.45 1018.46 1019.12 1019.50 1020.15 1020.53 1020.28 1018.53 1017.60 1013.05 1012.59 1011.83 1011.07 1010.36 1010.02 1009.78 1009.85 1010.10 1010.12 1010.35 1010.63 1010.97 1011.81 1012.17 1012.49 1012.96 1013.35 1014.01 1014.62 1014.89 1015.29 1015.52 1015.55 1016.11 1016.69 1016.92 1017.38 1017.58 1018.01
1017.79 1017.70 1017.61 1017.40 1017.65 1018.16 1018.82 1019.20 1019.87 1020.08 1020.20 1019.16 1017.37 1016.58 1012.47 1011.39 1010.61 1009.78 1009.46 1009.23 1009.20 1009.40 1009.71 1009.87 1010.03 1010.34 1010.55 1011.10 1011.58 1011.92 1012.21 1012.35 1012.78 1013.40 1013.73 1013.94 1014.36 1014.77 1015.10 1015.56 1016.05 1016.42 1016.77 1017.19
1017.63 1017.78 1017.65 1017.51 1017.90 1018.64 1018.45 1018.72 1019.47 1019.84 1019.57 1017.05 1016.47 1015.37 1012.29 1010.67 1010.20 1009.40 1009.07 1008.75 1009.16 1009.36 1009.55 1009.51 1009.57 1009.91 1010.14 1010.26 1010.67 1011.04 1011.43 1011.57 1012.00 1012.33 1012.73 1012.99 1013.03 1013.66 1014.04 1014.45 1015.02 1015.51 1015.80 1016.23
1017.22 1018.09 1017.42 1017.10 1016.67 1017.14 1017.98 1018.13 1018.26 1018.42 1018.38 1016.78 1016.51 1013.83 1010.95 1009.91 1009.60 1009.19 1009.20 1009.41 1009.30 1009.39 1009.66 1009.68 1009.49 1009.56 1009.52 1009.73 1010.04 1010.39 1010.55 1010.60 1010.96 1011.39 1011.57 1011.97 1012.39 1012.74 1013.06 1013.54 1014.00 1014.45 1014.60 1014.91
1016.41 1016.74 1016.93 1016.97 1017.08 1017.05 1017.89 1018.23 1018.12 1018.75 1019.21 1017.48 1014.79 1012.52 1011.28 1009.92 1009.14 1009.28 1009.14 1009.43 1009.35 1009.32 1009.19 1009.28 1009.04 1009.00 1008.94 1009.02 1009.16 1009.46 1009.81 1010.00 1010.19 1010.45 1010.99 1011.32 1011.73 1011.97 1012.15 1012.63 1013.11 1013.47 1013.80 1014.04
1015.22 1016.06 1017.03 1017.01 1017.16 1017.11 1017.04 1017.78 1019.03 1019.14 1018.26 1016.29 1013.40 1011.78 1009.70 1009.41 1008.73 1008.69 1009.02 1009.29 1009.27 1009.47 1009.37 1009.16 1009.04 1008.91 1008.71 1008.62 1008.60 1008.80 1009.01 1009.18 1009.51 1009.80 1010.19 1010.49 1010.88 1011.27 1011.61 1012.03 1012.25 1012.63 1013.01 1013.51
1015.43 1016.13 1017.53 1017.15 1016.52 1016.24 1017.46 1017.75 1018.29 1017.85 1017.40 1015.78 1013.24 1010.37 1009.05 1008.55 1008.40 1008.64 1009.08 1009.25 1009.37 1009.60 1009.61 1009.41 1009.07 1008.94 1008.87 1008.62 1008.62 1008.68 1008.67 1008.89 1009.09 1009.28 1009.50 1009.84 1010.12 1010.64 1010.97 1011.17 1011.46 1011.93 1012.45 1012.71
1014.92 1015.89 1016.52 1016.48 1016.62 1016.66 1016.35 1016.81 1017.28 1016.76 1016.48 1015.80 1013.86 1009.98 1008.92 1008.54 1008.80 1009.30 1009.17 1008.99 1009.32 1009.75 1009.82 1009.66 1009.13 1008.88 1008.66 1008.71 1008.73 1008.90 1008.62 1008.52 1008.60 1008.77 1009.08 1009.21 1009.49 1009.92 1010.37 1010.58 1010.82 1011.26 1011.60 1012.08
1014.62 1015.29 1016.11 1016.60 1016.96 1016.47 1015.87 1015.92 1016.05 1015.96 1016.05 1014.61 1013.83 1008.94 1008.08 1008.39 1008.83 1009.06 1009.19 1008.94 1008.99 1009.17 1009.37 1009.37 1009.11 1008.92 1008.82 1008.59 1008.59 1008.62 1008.66 1008.21 1008.20 1008.43 1008.65 1008.87 1009.05 1009.35 1009.71 1010.07 1010.46 1010.90 1011.36 1011.67
1014.80 1015.06 1015.06 1014.57 1014.60 1014.95 1015.63 1015.59 1015.62 1015.71 1015.34 1013.42 1012.93 1009.33 1007.57 1008.44 1008.74 1009.13 1009.20 1009.08 1008.94 1008.81 1008.87 1008.94 1008.99 1008.69 1008.66 1008.54 1008.29 1008.33 1008.38 1008.30 1008.44 1008.41 1008.36 1008.53 1008.77 1009.05 1009.45 1009.95 1010.39 1010.75 1011.08 1011.44
1015.42 1015.29 1015.50 1015.24 1015.58 1015.69 1015.59 1015.62 1015.46 1015.11 1013.92 1013.81 1011.40 1010.62 1005.86 1009.10 1009.37 1009.31 1009.40 1009.25 1009.10 1009.07 1008.78 1008.34 1008.23 1008.26 1008.13 1008.15 1008.17 1008.19 1008.16 1008.40 1008.51 1008.74 1008.88 1008.92 1009.10 1009.33 1009.72 1010.13 1010.51 1010.98 1011.30 1011.57
1016.09 1016.14 1016.27 1016.32 1016.36 1016.38 1016.08 1015.71 1015.29 1015.12 1014.44 1013.75 1011.88 1010.86 1004.67 1009.94 1009.82 1009.33 1009.05 1009.28 1008.75 1008.48 1008.38 1008.05 1007.85 1007.77 1007.69 1007.54 1007.59 1007.84 1008.12 1008.26 1008.48 1008.53 1008.70 1009.01 1009.34 1009.79 1010.22 1010.68 1011.07 1011.38 1011.74 1012.00
1016.60 1016.95 1017.36 1017.06 1017.06 1016.88 1016.10 1013.83 1014.08 1013.71 1013.47 1012.68 1011.93 1008.45 1007.11 1009.45 1009.33 1008.79 1008.57 1008.81 1008.43 1007.98 1007.35 1006.75 1006.14 1005.89 1006.20 1006.35 1006.61 1006.83 1007.51 1008.05 1008.39 1008.50 1008.67 1009.08 1009.60 1010.12 1010.48 1010.81 1011.12 1011.61 1012.03 1012.42
1017.19 1017.62 1017.80 1017.72 1017.68 1016.24 1013.26 1013.23 1012.87 1012.69 1011.94 1011.97 1011.11 1008.35 1006.93 1009.53 1008.63 1008.01 1008.33 1007.99 1007.43 1006.86 1006.25 1005.30 1004.82 1005.00 1005.48 1005.76 1005.99 1006.33 1006.80 1007.72 1008.33 1008.49 1008.59 1009.02 1009.72 1010.06 1010.44 1010.87 1011.20 1011.61 1012.06 1012.52
1017.73 1017.94 1018.18 1018.11 1017.21 1015.38 1013.45 1013.02 1012.88 1012.53 1011.29 1011.19 1009.95 1008.49 1008.53 1008.92 1008.04 1005.70 1007.62 1006.71 1006.03 1005.81 1005.50 1005.07 1004.79 1004.47 1004.67 1004.87 1005.63 1006.25 1006.62 1007.12 1007.71 1008.26 1008.68 1008.65 1009.30 1009.97 1010.28 1010.57 1010.97 1011.45 1011.95 1012.50
1018.00 1017.95 1018.21 1017.95 1017.04 1015.30 1011.88 1011.99 1011.93 1012.30 1010.42 1010.28 1009.97 1008.82 1008.32 1008.57 1007.57 1003.53 1006.20 1006.12 1005.94 1005.69 1005.36 1004.82 1004.44 1004.09 1003.89 1003.98 1004.87 1005.52 1005.87 1006.36 1006.80 1007.17 1007.51 1008.05 1008.35 1009.24 1009.87 1010.17 1010.41 1011.09 1011.56 1012.18
1017.99 1017.95 1017.41 1017.06 1016.44 1014.58 1012.76 1012.66 1012.81 1012.76 1008.85 1009.64 1010.03 1009.54 1009.31 1009.25 1008.01 1005.37 1007.18 1006.57 1006.17 1005.70 1005.08 1004.63 1004.02 1003.44 1003.01 1003.52 1004.35 1004.57 1005.06 1004.94 1004.97 1006.28 1006.96 1007.64 1007.77 1008.51 1009.09 1009.76 1010.23 1010.92 1011.63 1012.29
1016.51 1016.84 1016.37 1016.52 1016.32 1014.14 1011.93 1012.79 1012.65 1011.06 1010.23 1011.49 1012.17 1011.81 1011.42 1010.62 1009.69 1008.08 1008.34 1007.31 1007.10 1006.20 1004.90 1004.30 1004.03 1003.20 1002.49 1002.88 1003.74 1003.75 1003.81 1003.47 1004.54 1005.19 1006.09 1007.13 1007.61 1008.14 1008.95 1009.87 1010.26 1010.74 1011.54 1012.13
1015.79 1014.48 1014.74 1014.96 1013.69 1011.49 1011.66 1012.01 1013.31 1013.56 1013.21 1014.31 1014.77 1014.16 1013.39 1011.85 1010.73 1010.53 1009.08 1008.43 1007.54 1006.74 1005.90 1005.21 1004.86 1003.63 1002.56 1002.71 1002.88 1002.89 1002.03 1003.40 1004.18 1005.10 1005.87 1006.61 1007.33 1008.00 1008.64 1009.03 1009.68 1010.29 1010.83 1011.39
1015.13 1015.00 1014.95 1014.86 1013.36 1012.27 1011.83 1014.01 1015.71 1016.49 1016.37 1016.42 1016.88 1016.66 1015.79 1014.02 1012.53 1011.34 1010.37 1009.03 1008.18 1007.15 1006.19 1005.77 1005.32 1004.25 1002.89 1002.78 1002.74 1001.94 1002.28 1003.25 1004.11 1004.96 1005.65 1006.35 1006.97 1007.76 1008.61 1009.21 1009.53 1009.77 1010.11 1010.65
1016.49 1016.71 1016.70 1016.29 1014.65 1014.66 1013.02 1016.67 1018.28 1018.65 1018.53 1018.01 1018.18 1018.04 1017.33 1016.06 1013.72 1013.12 1011.34 1010.39 1009.14 1007.76 1006.55 1006.10 1005.16 1004.40 1002.62 1002.74 1002.58 1002.59 1002.44 1002.99 1003.55 1004.93 1005.81 1006.32 1006.49 1007.18 1008.04 1008.81 1009.25 1009.51 1009.88 1010.23
1020.15 1020.89 1020.85 1019.41 1020.75 1020.53 1017.42 1019.11 1020.25 1019.69 1019.70 1019.42 1018.54 1017.23 1017.70 1017.15 1015.23 1013.92 1011.73 1010.87 1009.67 1008.11 1006.89 1005.90 1004.94 1004.31 1002.92 1002.78 1002.77 1003.08 1002.71 1003.07 1003.29 1003.81 1005.02 1006.02 1006.50 1007.03 1007.52 1008.34 1009.55 1010.09 1010.31 1010.91
Wind_Speed
10 6 11 13 8 4 5 4 5 0 3 4 14 18 21 16 16 15 14 14 16 17 17 12 13 15 16 16 18 19 19 19 14 12 11 11 10 11 10 10 13 14 13 13
6 19 23 12 8 12 6 6 3 4 2 2 13 18 21 19 16 19 20 19 17 14 15 14 15 15 18 19 20 21 21 19 16 13 12 10 11 11 11 10 12 14 14 14
11 4 13 18 17 14 8 5 3 1 7 10 13 22 25 18 19 21 22 22 22 23 22 21 19 19 18 20 22 21 21 22 20 19 12 10 8 7 9 11 11 13 16 15
10 4 18 19 22 18 18 13 11 7 3 3 5 10 18 17 16 16 19 21 24 25 24 22 21 19 19 21 18 21 21 22 20 21 16 17 14 13 12 12 11 12 16 16
9 17 17 22 23 17 10 16 17 12 10 10 15 9 8 8 13 19 21 20 22 22 21 23 22 20 18 15 17 19 21 21 21 20 20 16 17 13 11 11 14 15 14 17
7 1 7 8 11 18 12 11 6 4 5 10 17 16 9 9 9 15 18 19 17 16 17 18 17 15 16 14 15 16 19 21 22 21 23 23 21 18 13 14 12 11 11 11
5 4 4 7 11 8 11 11 3 4 6 11 3 11 17 10 16 17 15 14 9 9 11 13 13 13 14 16 17 16 19 20 21 22 22 22 22 21 20 17 13 13 11 10
11 9 15 9 9 7 16 13 5 7 8 3 4 13 7 20 21 20 17 16 15 14 12 13 13 12 12 13 14 16 18 20 20 21 22 19 22 13 14 16 12 11 11 11
12 5 3 9 5 11 8 8 7 1 1 3 6 11 12 16 15 11 13 11 12 13 12 13 14 13 13 12 14 16 17 18 19 20 18 19 18 19 16 18 15 12 13 11
3 5 2 11 6 6 6 11 4 3 7 8 10 12 11 3 8 13 12 9 9 9 11 12 11 13 12 13 12 12 15 18 17 18 17 15 17 17 16 14 16 16 13 13
6 3 4 9 11 14 5 4 4 3 4 3 4 9 4 13 12 9 7 5 8 9 8 11 12 11 13 11 8 10 11 14 14 16 16 16 15 16 16 14 14 14 13 13
12 2 6 10 4 1 16 13 14 4 7 5 6 14 8 8 5 3 11 12 5 6 8 10 11 12 11 10 6 7 9 12 13 13 15 15 16 15 14 15 15 13 14 13
15 9 6 5 4 7 10 18 17 17 0 13 7 16 5 1 4 7 9 13 12 9 9 9 9 11 11 8 8 8 9 11 11 12 14 14 14 13 15 15 15 13 12 12
15 6 15 13 5 6 11 17 19 19 10 20 16 33 28 19 16 18 16 17 18 20 19 11 9 9 9 8 8 9 10 8 9 11 12 13 13 13 13 11 11 11 10 10
12 8 15 18 5 2 3 4 17 22 27 17 26 25 40 13 14 13 10 13 17 16 19 20 16 11 10 10 9 9 8 6 5 8 9 10 6 6 6 7 5 3 4 3
3 2 5 5 12 11 13 14 15 14 13 14 24 27 45 16 16 15 16 15 17 17 17 16 11 11 10 10 10 8 8 7 6 7 8 7 5 4 4 5 5 5 5 5
7 5 3 5 6 4 8 25 22 22 21 20 20 33 26 18 18 18 19 18 19 20 21 22 23 19 14 12 11 12 9 7 7 6 5 5 6 6 6 6 6 6 6 5
7 6 1 3 1 15 9 5 17 23 25 21 25 34 34 20 21 21 17 20 20 21 22 25 22 20 15 12 9 9 9 9 8 7 7 7 8 7 6 6 6 5 5 7
7 4 4 5 6 8 13 6 8 9 19 20 24 28 25 19 21 27 18 21 22 21 20 21 21 21 17 10 10 10 9 9 9 10 9 10 10 10 10 10 9 6 7 6
8 7 6 3 5 7 10 8 8 3 18 17 21 25 25 18 15 19 4 8 10 14 16 17 19 18 14 13 11 11 12 12 14 13 14 12 12 11 11 11 11 7 8 8
6 4 11 10 7 10 5 5 7 9 20 4 8 17 18 16 17 26 18 20 19 19 22 19 18 17 18 12 11 14 13 18 16 11 10 10 11 11 11 11 6 9 9 8
9 11 8 8 6 18 14 8 15 11 13 5 5 10 15 17 20 24 19 19 18 20 22 21 15 18 18 9 12 15 17 17 12 13 12 11 10 9 9 11 10 10 10 10
6 10 7 11 10 15 10 9 5 6 6 6 7 14 17 22 23 22 22 22 19 19 17 17 18 20 18 9 14 15 19 11 12 12 12 11 11 9 10 13 13 11 11 10
5 2 5 6 15 20 15 4 10 12 15 15 10 12 15 21 23 24 21 21 20 19 18 14 17 18 18 9 11 18 6 10 12 13 13 12 12 11 9 7 8 9 9 9
1 0 4 10 20 16 22 13 14 17 17 18 15 14 15 19 24 23 21 20 19 20 19 16 15 18 17 7 11 7 8 13 13 10 10 11 10 12 10 7 7 7 6 8
6 5 6 11 9 8 15 17 24 23 19 19 22 23 16 17 22 22 22 17 19 20 20 20 17 15 14 6 7 6 9 13 14 14 11 10 9 9 9 9 7 6 7 8
Wind_Direction
189 164 207 240 258 300 155 182 242 326 282 271 254 259 267 260 248 249 251 248 245 242 242 231 222 221 223 221 217 214 209 209 205 204 204 209 211 213 216 217 217 216 215 215
151 215 213 200 237 236 197 178 167 333 358 309 277 270 272 259 251 250 247 246 245 242 242 229 224 217 216 217 216 215 215 207 204 206 208 208 208 220 217 215 216 218 215 215
199 260 185 181 184 191 197 175 145 146 351 289 289 274 269 253 241 248 245 246 247 247 244 244 230 223 220 217 216 214 214 212 206 208 202 207 218 216 216 220 216 216 215 213
221 178 171 184 187 194 211 199 200 198 59 279 324 291 276 277 258 247 252 243 244 244 240 245 244 232 219 220 216 217 214 214 213 205 204 204 205 209 218 218 219 217 212 214
166 172 183 182 195 196 229 172 192 203 212 267 256 262 260 255 262 259 254 249 244 246 248 247 245 249 238 225 216 216 217 213 214 209 210 209 217 221 222 222 224 219 214 218
148 148 172 173 177 191 145 134 153 159 204 248 250 225 255 260 253 256 256 252 254 250 250 251 253 253 246 235 225 222 219 218 212 210 211 213 216 220 217 218 221 222 221 218
122 195 162 163 153 188 179 161 169 187 194 246 34 224 253 251 240 244 255 257 273 262 258 263 259 246 242 232 224 221 219 223 216 214 214 216 216 215 220 219 218 222 219 217
169 187 183 185 201 176 190 186 191 215 209 248 96 240 249 243 247 262 257 273 284 278 272 269 271 264 248 237 232 227 222 225 218 217 217 215 218 218 218 220 217 219 217 215
184 184 192 185 154 169 162 201 243 281 322 260 218 256 257 252 251 265 272 267 281 293 288 279 278 263 250 242 232 225 228 231 226 219 219 219 218 218 217 218 220 219 222 220
196 150 227 181 204 217 204 140 148 182 212 229 232 263 250 238 264 237 261 281 282 312 308 302 295 291 279 263 250 233 230 231 227 221 218 217 217 219 220 220 220 219 222 221
156 184 132 164 203 192 143 177 222 192 186 244 280 247 253 234 262 299 303 281 308 310 316 313 309 303 288 274 252 251 236 233 229 225 219 215 213 215 217 218 219 220 220 215
172 143 182 200 130 293 211 203 194 198 190 255 310 266 206 247 255 305 299 295 310 307 325 317 317 318 306 295 283 265 239 227 228 225 221 218 216 213 214 216 217 215 217 215
174 211 192 193 220 209 219 219 230 233 313 238 249 265 57 290 296 322 322 326 320 301 308 327 336 324 315 299 288 272 255 237 223 219 218 218 217 211 214 217 220 215 216 218
163 194 211 218 225 185 207 223 220 226 230 243 238 265 258 259 276 301 302 302 307 315 326 323 315 312 298 282 269 271 271 251 235 221 213 214 212 213 216 216 214 212 211 212
187 218 219 238 240 90 180 234 236 230 236 235 248 254 266 267 286 303 319 303 301 300 298 303 306 300 297 288 270 261 254 257 237 232 228 224 205 195 190 188 178 151 161 161
173 132 183 246 236 244 250 247 238 234 259 247 260 270 263 297 288 291 290 299 296 294 294 291 272 266 266 267 257 251 251 236 213 217 222 202 176 149 147 127 128 128 131 126
178 143 147 227 193 192 252 237 246 248 239 235 249 251 284 280 282 284 287 287 288 290 289 281 273 268 255 237 230 230 224 209 211 206 178 169 155 159 156 149 144 141 139 129
165 149 140 238 124 219 249 248 231 233 243 242 251 261 273 283 281 277 267 269 268 265 269 271 274 278 270 251 224 225 189 200 208 200 177 167 170 166 155 152 153 145 142 146
193 145 167 198 211 311 284 206 185 205 251 234 246 262 274 280 273 266 259 245 251 261 266 273 278 280 278 246 218 208 192 186 185 200 202 180 177 170 168 168 164 152 143 140
212 255 200 163 224 239 264 203 192 164 269 233 235 251 261 272 268 275 285 289 290 286 284 283 276 277 272 258 208 198 204 193 207 196 197 189 174 174 176 169 161 156 153 145
177 201 220 215 232 269 256 209 160 187 259 156 246 262 287 281 279 301 323 310 300 294 291 284 275 267 260 251 196 213 206 212 204 190 180 183 175 173 169 159 151 147 145 137
169 177 206 213 222 260 171 178 208 241 293 16 342 331 317 306 304 309 319 313 314 303 299 298 280 271 268 232 197 222 214 215 190 173 172 175 168 161 156 156 150 149 148 143
203 205 179 195 202 251 194 246 43 7 308 53 340 322 321 310 308 314 313 312 308 306 306 309 294 283 281 220 209 224 228 185 169 166 171 168 162 162 165 162 161 157 157 155
242 174 233 247 247 260 266 76 51 9 338 337 342 323 311 305 310 311 311 312 308 306 300 304 297 278 274 238 222 232 184 169 165 173 167 163 164 160 164 170 170 165 168 164
293 112 271 257 262 293 280 67 8 338 326 324 324 316 311 307 304 307 302 300 301 302 302 299 292 283 275 260 235 225 174 166 164 165 166 170 166 166 159 164 171 175 179 184
17 339 253 261 40 313 288 346 332 323 329 322 318 316 310 307 300 302 296 300 299 299 301 298 290 275 278 246 234 206 177 178 169 162 165 173 166 161 156 148 141 125 146 163